Stanley, ND

8:22 AM CST on February 09, 2016 (GMT -0600)
Stanley

Weather History for K08D - March, 2013

Change the Weather History Date:

Saturday, March 9, 2013

  Actual Average (KMOT) Record (KMOT)
Temperature  
Mean Temperature 16 °F 25 °F  
Max Temperature 26 °F 33 °F 56 °F (1977)
Min Temperature 6 °F 17 °F -22 °F (1948)
Degree Days  
Heating Degree Days 49 40  
Month to date heating degree days 376  
Since 1 July heating degree days 6952  
Cooling Degree Days 0 0  
Month to date cooling degree days 0  
Year to date cooling degree days 0  
Moisture  
Dew Point 16 °F    
Average Humidity 92    
Maximum Humidity 100    
Minimum Humidity 79    
Precipitation  
Precipitation 0.27 in 0.03 in 0.67 in (1993)
Month to date precipitation 0.18  
Year to date precipitation 1.09  
Sea Level Pressure  
Sea Level Pressure 29.98 in    
Wind  
Wind Speed 9 mph (NW)    
Max Wind Speed 25 mph    
Max Gust Speed 32 mph    
Visibility 9 miles    
Events Snow    
T = Trace of Precipitation, MM = Missing Value Source: NWS Daily Summary

Daily Weather History Graph

Daily Weather History Graph

Search for Another Location

Airport or City:

Trip Planner

Search our weather history database for the weather conditions in past years. The results will help you decide how hot, cold, wet, or windy it might be!

Date:

Astronomy

Mar. 09, 2013 Rise Set
Actual Time 7:14 AM CST 6:46 PM CST
Civil Twilight 6:43 AM CST 7:17 PM CST
Nautical Twilight 6:07 AM CST 7:53 PM CST
Astronomical Twilight 5:30 AM CST 8:30 PM CST
Moon 5:47 AM CST 4:44 PM CST
Length of Visible Light 12h 34m
Length of Day
11h 32m
Waning Crescent, 5% of the Moon is Illuminated
Mar 9
Waning Crescent
Mar 11
New
Mar 19
First Quarter
Mar 27
Full
Apr 2
Last Quarter

Hourly Weather History & Observations

Time (CST) Temp. Windchill Dew Point Humidity Pressure Visibility Wind Dir Wind Speed Gust Speed Precip Events Conditions
12:15 AM 21.2 °F 12.6 °F 19.4 °F 93% 29.97 in 10.0 mi South 6.9 mph - N/A   Overcast
12:35 AM 21.2 °F 12.6 °F 19.4 °F 93% 29.96 in 10.0 mi South 6.9 mph - N/A   Overcast
12:55 AM 21.2 °F 16.4 °F 19.4 °F 93% 29.96 in 10.0 mi South 3.5 mph - N/A   Overcast
1:15 AM 21.2 °F 11.7 °F 19.4 °F 93% 29.94 in 10.0 mi SSE 8.1 mph - N/A   Overcast
1:35 AM 21.2 °F 11.7 °F 19.4 °F 93% 29.94 in 10.0 mi South 8.1 mph - N/A   Overcast
1:55 AM 19.4 °F 11.5 °F 17.6 °F 93% 29.93 in 10.0 mi South 5.8 mph - N/A   Overcast
2:15 AM 17.6 °F 10.7 °F 17.6 °F 100% 29.93 in 10.0 mi South 4.6 mph - N/A   Overcast
2:35 AM 19.4 °F - 17.6 °F 93% 29.93 in 10.0 mi Calm Calm - N/A   Overcast
3:15 AM 17.6 °F - 17.6 °F 100% 29.92 in 10.0 mi Calm Calm - N/A   Overcast
3:35 AM 17.6 °F 12.3 °F 17.6 °F 100% 29.91 in 10.0 mi SW 3.5 mph - N/A   Overcast
3:55 AM 17.6 °F - 17.6 °F 100% 29.89 in 10.0 mi Calm Calm - N/A   Overcast
4:15 AM 15.8 °F 8.6 °F 15.8 °F 100% 29.89 in 10.0 mi NW 4.6 mph - N/A   Overcast
4:35 AM 19.4 °F - 17.6 °F 93% 29.88 in 10.0 mi Calm Calm - N/A   Overcast
4:55 AM 19.4 °F 11.5 °F 19.4 °F 100% 29.88 in 10.0 mi NW 5.8 mph - N/A   Overcast
5:15 AM 21.2 °F - 19.4 °F 93% 29.88 in 10.0 mi Calm Calm - N/A   Overcast
5:35 AM 21.2 °F - 19.4 °F 93% 29.88 in 10.0 mi Calm Calm - N/A   Overcast
5:55 AM 23.0 °F - 19.4 °F 86% 29.88 in 10.0 mi Calm Calm - N/A   Overcast
6:15 AM 23.0 °F - 21.2 °F 93% 29.88 in 10.0 mi Calm Calm - N/A   Overcast
6:35 AM 23.0 °F - 21.2 °F 93% 29.88 in 10.0 mi Calm Calm - N/A   Overcast
6:55 AM 23.0 °F 18.4 °F 23.0 °F 100% 29.88 in 10.0 mi WNW 3.5 mph - N/A Snow Light Snow
7:15 AM 23.0 °F - 23.0 °F 100% 29.88 in 10.0 mi Calm Calm - N/A Snow Light Snow
7:35 AM 24.8 °F - 23.0 °F 93% 29.88 in 3.0 mi Calm Calm - 0.03 in Snow Light Snow
7:55 AM 24.8 °F 20.5 °F 23.0 °F 93% 29.88 in 10.0 mi WSW 3.5 mph - 0.04 in Snow Light Snow
8:15 AM 24.8 °F 16.1 °F 24.8 °F 100% 29.88 in 10.0 mi WNW 8.1 mph - N/A Snow Light Snow
8:35 AM 24.8 °F 16.9 °F 24.8 °F 100% 29.88 in 10.0 mi NW 6.9 mph - N/A Snow Light Snow
8:55 AM 24.8 °F 16.1 °F 24.8 °F 100% 29.88 in 5.0 mi NW 8.1 mph - N/A Snow Light Snow
9:15 AM 24.8 °F 16.9 °F 24.8 °F 100% 29.89 in 5.0 mi WNW 6.9 mph - 0.01 in Snow Light Snow
9:35 AM 24.8 °F 15.3 °F 24.8 °F 100% 29.89 in 8.0 mi WNW 9.2 mph - 0.02 in Snow Light Snow
9:55 AM 24.8 °F 17.9 °F 24.8 °F 100% 29.90 in 10.0 mi WNW 5.8 mph - 0.02 in   Overcast
10:15 AM 26.6 °F 15.2 °F 26.6 °F 100% 29.90 in 4.0 mi NW 13.8 mph 18.4 mph N/A   Overcast
10:35 AM 26.6 °F 16.8 °F 26.6 °F 100% 29.91 in 6.0 mi NW 10.4 mph 18.4 mph 0.05 in Snow Light Snow
10:55 AM 26.6 °F 14.7 °F 24.8 °F 93% 29.91 in 2.5 mi NNW 15.0 mph 18.4 mph 0.06 in Snow Light Snow
11:15 AM 24.8 °F 12.4 °F 24.8 °F 100% 29.91 in 2.5 mi NNW 15.0 mph 20.7 mph 0.12 in Snow Light Snow
11:35 AM 24.8 °F 11.9 °F 23.0 °F 93% 29.92 in 10.0 mi NNW 16.1 mph 20.7 mph 0.14 in Snow Light Snow
11:55 AM 23.0 °F 10.1 °F 21.2 °F 93% 29.92 in 10.0 mi NW 15.0 mph - 0.15 in   Mostly Cloudy
12:15 PM 23.0 °F 8.3 °F 19.4 °F 86% 29.93 in 10.0 mi NW 19.6 mph 25.3 mph N/A   Mostly Cloudy
12:35 PM 21.2 °F 6.0 °F 17.6 °F 86% 29.94 in 10.0 mi NNW 19.6 mph 27.6 mph N/A   Scattered Clouds
12:55 PM 19.4 °F 4.1 °F 17.6 °F 93% 29.94 in 10.0 mi NW 18.4 mph 23.0 mph N/A   Scattered Clouds
1:15 PM 19.4 °F 4.1 °F 15.8 °F 86% 29.95 in 10.0 mi NNW 18.4 mph 24.2 mph N/A   Scattered Clouds
1:35 PM 19.4 °F 6.6 °F 15.8 °F 86% 29.95 in 10.0 mi NNW 12.7 mph - N/A   Clear
1:55 PM 19.4 °F 3.2 °F 15.8 °F 86% 29.94 in 10.0 mi NW 20.7 mph 28.8 mph N/A Snow Light Snow
2:15 PM 19.4 °F 5.5 °F 15.8 °F 86% 29.95 in 10.0 mi NW 15.0 mph 27.6 mph N/A   Clear
2:35 PM 19.4 °F 2.8 °F 15.8 °F 86% 29.95 in 10.0 mi NW 21.9 mph 26.5 mph N/A   Clear
2:55 PM 19.4 °F 2.8 °F 15.8 °F 86% 29.96 in 10.0 mi NW 21.9 mph 28.8 mph N/A Snow Light Snow
3:15 PM 19.4 °F 4.1 °F 15.8 °F 86% 29.97 in 10.0 mi NW 18.4 mph 24.2 mph N/A   Clear
3:35 PM 19.4 °F 3.6 °F 15.8 °F 86% 29.98 in 10.0 mi NNW 19.6 mph 27.6 mph N/A Snow Light Snow
3:55 PM 17.6 °F -0.6 °F 15.8 °F 93% 29.98 in 8.0 mi NNW 25.3 mph 31.1 mph N/A   Clear
4:15 PM 17.6 °F 0.9 °F 14.0 °F 86% 30.00 in 9.0 mi NW 20.7 mph 32.2 mph N/A Snow Light Snow
4:35 PM 17.6 °F 2.2 °F 14.0 °F 86% 30.01 in 10.0 mi NW 17.3 mph 25.3 mph N/A   Clear
4:55 PM 17.6 °F 2.7 °F 14.0 °F 86% 30.02 in 10.0 mi NW 16.1 mph 25.3 mph N/A   Clear
5:15 PM 15.8 °F -0.6 °F 14.0 °F 93% 30.03 in 10.0 mi NW 18.4 mph 23.0 mph N/A   Clear
5:35 PM 15.8 °F 1.4 °F 12.2 °F 86% 30.03 in 10.0 mi NW 13.8 mph 18.4 mph N/A   Clear
5:55 PM 15.8 °F 0.9 °F 10.4 °F 79% 30.03 in 10.0 mi NW 15.0 mph 21.9 mph N/A   Clear
6:15 PM 14.0 °F -2.0 °F 10.4 °F 86% 30.04 in 10.0 mi NW 16.1 mph 23.0 mph N/A   Clear
6:35 PM 14.0 °F -3.4 °F 10.4 °F 86% 30.05 in 10.0 mi NW 19.6 mph 26.5 mph N/A   Clear
6:55 PM 12.2 °F -4.3 °F 10.4 °F 92% 30.07 in 10.0 mi NW 16.1 mph 24.2 mph N/A   Clear
7:15 PM 12.2 °F -4.8 °F 8.6 °F 85% 30.08 in 10.0 mi NW 17.3 mph 23.0 mph N/A   Clear
7:35 PM 12.2 °F -4.3 °F 8.6 °F 85% 30.08 in 10.0 mi NW 16.1 mph 21.9 mph N/A   Clear
7:55 PM 10.4 °F -6.6 °F 8.6 °F 92% 30.09 in 10.0 mi NW 16.1 mph 23.0 mph N/A   Clear
8:15 PM 10.4 °F -8.2 °F 8.6 °F 92% 30.10 in 10.0 mi NW 19.6 mph 25.3 mph N/A   Clear
8:35 PM 10.4 °F -8.2 °F 8.6 °F 92% 30.11 in 10.0 mi NW 19.6 mph 25.3 mph N/A   Clear
8:55 PM 10.4 °F -6.6 °F 8.6 °F 92% 30.12 in 10.0 mi NW 16.1 mph 24.2 mph N/A   Clear
9:15 PM 10.4 °F -7.2 °F 8.6 °F 92% 30.13 in 10.0 mi NW 17.3 mph 23.0 mph N/A   Clear
9:35 PM 10.4 °F -5.4 °F 6.8 °F 85% 30.14 in 10.0 mi NNW 13.8 mph 20.7 mph N/A   Scattered Clouds
9:55 PM 8.6 °F -7.7 °F 6.8 °F 92% 30.15 in 10.0 mi NW 13.8 mph 20.7 mph N/A   Overcast
10:15 PM 8.6 °F -7.7 °F 6.8 °F 92% 30.17 in 10.0 mi NNW 13.8 mph - N/A   Overcast
10:35 PM 8.6 °F -7.0 °F 6.8 °F 92% 30.17 in 10.0 mi NNW 12.7 mph - N/A   Mostly Cloudy
10:55 PM 8.6 °F -7.7 °F 5.0 °F 85% 30.17 in 10.0 mi NNW 13.8 mph - N/A   Clear
11:15 PM 6.8 °F -11.3 °F 5.0 °F 92% 30.18 in 10.0 mi NNW 16.1 mph - N/A   Clear
11:35 PM 6.8 °F -11.3 °F 5.0 °F 92% 30.18 in 10.0 mi NNW 16.1 mph - N/A   Clear
11:55 PM 6.8 °F -10.7 °F 5.0 °F 92% 30.17 in 10.0 mi NNW 15.0 mph - N/A   Clear